Location: Moscow
(55.7500°N, 37.5830°E)
Time: 16:52:28
(UTC+03:00)

Vanguard 1 Rocket - Visible Passes

Search period start: 26 June 2022 00:00
Search period end: 06 July 2022 00:00
Orbit: 651 x 4224 km, 34.3° (Epoch: 25 June)

Date Brightness Start Highest point End Pass type
(mag) Time Alt. Az. Time Alt. Az. Time Alt. Az.
30 Jun 9.2 23:13:59 10° SSW 23:14:52 10° SSW 23:15:43 10° S visible
02 Jul 9.3 23:15:22 10° SSW 23:17:04 11° SSW 23:18:36 10° S visible
04 Jul 9.4 23:17:20 10° SW 23:19:11 11° SSW 23:20:50 10° SSW visible
05 Jul 9.4 22:02:48 10° SW 22:08:37 16° SSW 22:12:55 10° SSE visible
